Find STARLINK-37612

NORAD ID: 70627 Constellation: starlink operational
LEOCIRCULARRETROGRADE

Live Position

Loading 3D Globe...

About STARLINK-37612

Description loading...

Upcoming Passes

Passes for default location (London). Set your location on the main map for personalized predictions.

Altitude History

Loading altitude history...

Two-Line Element Set

1 70627C 26101Q 26126.32618056 .00346460 00000+0 54238-3 0 1269
2 70627 97.2846 339.8681 0010041 258.2970 71.8456 16.03726160 11
Epoch: May 6, 2026 • Age: 17 hours